This is the latest recevied weather packets stored in our database for station/object KE5WTH-14. If no packets are shown the sender has not sent any weather packets the latest 1 day(s).
| Time | Temp. | Humidity | Pressure | Rain* | Wind** | Luminosity | Snow |
|---|---|---|---|---|---|---|---|
| 1778026103 | 23.33° C | 69% | 1005.4 hPa | 0 mm | - | 28 W/m² | - |
| 1778025907 | 23.33° C | 70% | 1005.5 hPa | 0 mm | - | 37 W/m² | - |
| 1778025484 | 23.33° C | 70% | 1005.4 hPa | 0 mm | - | 67 W/m² | - |
| 1778025243 | 23.89° C | 69% | 1005.6 hPa | 0 mm | - | 72 W/m² | - |
| 1778024943 | 23.89° C | 70% | 1005.3 hPa | 0 mm | - | 88 W/m² | - |
| 1778024147 | 25° C | 67% | 1005.2 hPa | 0 mm | - | 111 W/m² | - |
| 1778023773 | 25.56° C | 67% | 1004.9 hPa | 0 mm | - | 128 W/m² | - |
| 1778023715 | 25.56° C | 66% | 1004.9 hPa | 0 mm | - | 135 W/m² | - |
| 1778023473 | 25.56° C | 66% | 1005 hPa | 0 mm | - | 100 W/m² | - |
| 1778023414 | 25.56° C | 65% | 1005.1 hPa | 0 mm | - | 77 W/m² | - |
| 1778023214 | 26.11° C | 65% | 1005.2 hPa | 0 mm | - | 65 W/m² | - |
| 1778022844 | 26.67° C | 64% | 1005.1 hPa | 0 mm | - | 67 W/m² | - |
| 1778022415 | 26.67° C | 62% | 1004.9 hPa | 0 mm | - | 88 W/m² | - |
| 1778022295 | 27.22° C | 62% | 1004.8 hPa | 0 mm | - | 95 W/m² | - |
| 1778022107 | 27.22° C | 62% | 1004.9 hPa | 0 mm | - | 109 W/m² | - |
| 1778021435 | 28.33° C | 59% | 1004.4 hPa | 0 mm | - | 116 W/m² | - |
| 1778021295 | 28.33° C | 58% | 1004.6 hPa | 0 mm | - | 113 W/m² | - |
| 1778021267 | 28.33° C | 58% | 1004.6 hPa | 0 mm | - | 111 W/m² | - |
| 1778021235 | 28.89° C | 58% | 1004.6 hPa | 0 mm | - | 111 W/m² | - |
| 1778021056 | 28.89° C | 57% | 1004.6 hPa | 0 mm | - | 116 W/m² | - |
| 1778020821 | 28.89° C | 56% | 1004.6 hPa | 0 mm | - | 134 W/m² | - |
| 1778020788 | 28.89° C | 55% | 1004.6 hPa | 0 mm | - | 142 W/m² | - |
| 1778020759 | 28.89° C | 55% | 1004.6 hPa | 0 mm | - | 151 W/m² | - |
| 1778020325 | 29.44° C | 52% | 1004.3 hPa | 0 mm | - | 178 W/m² | - |
| 1778020202 | 29.44° C | 52% | 1004.2 hPa | 0 mm | - | 162 W/m² | - |
* Rain latest hour (hover to see other rain measurements)
** Current wind speed in m/s (hover to see current wind gust speed)